Location: S�tio Afonso Gruber
(26.1760°S, 49.5250°W)
Time: 07:18:13
(UTC+00:00)

BlueWalker 3 - Visible Passes

Search period start: 02 December 2022 00:00
Search period end: 12 December 2022 00:00
Orbit: 500 x 519 km, 53.2° (Epoch: 01 December)

Date Brightness Start Highest point End Pass type
(mag) Time Alt. Az. Time Alt. Az. Time Alt. Az.
02 Dec 4.4 05:38:54 19° S 05:38:54 19° S 05:40:29 10° SSE visible
03 Dec 4.8 05:21:03 15° S 05:21:03 15° S 05:22:02 10° SSE visible
04 Dec 5.1 05:03:09 12° S 05:03:09 12° S 05:03:33 10° S visible
